Time,TemperatureF,DewpointF,PressureIn,WindDirection,WindDirectionDegrees,WindSpeedMPH,WindSpeedGustMPH,Humidity,HourlyPrecipIn,Conditions,Clouds,dailyrainin,SoftwareType,DateUTC
2013-02-24 00:04:00,-4.4,-7.7,29.33,West,275,0.0,0.0,85,0.00,,,0.00,LWC V2.00 B2112,2013-02-24 09:04:00,
2013-02-24 00:09:00,-5.0,-8.8,29.33,West,275,0.0,0.0,83,0.00,,,0.00,LWC V2.00 B2112,2013-02-24 09:09:00,
2013-02-24 00:14:00,-5.4,-9.0,29.34,West,275,0.0,0.0,84,0.00,,,0.00,LWC V2.00 B2112,2013-02-24 09:14:00,
2013-02-24 00:19:00,-5.4,-8.7,29.34,West,275,0.0,0.0,85,0.00,,,0.00,LWC V2.00 B2112,2013-02-24 09:19:00,
2013-02-24 00:24:00,-5.2,-8.5,29.34,West,275,0.0,0.0,85,0.00,,,0.00,LWC V2.00 B2112,2013-02-24 09:24:00,
2013-02-24 00:29:00,-4.9,-8.0,29.34,West,275,0.0,0.0,86,0.00,,,0.00,LWC V2.00 B2112,2013-02-24 09:29:00,
2013-02-24 00:34:00,-4.7,-8.0,29.34,West,275,0.0,0.0,85,0.00,,,0.00,LWC V2.00 B2112,2013-02-24 09:34:00,
2013-02-24 00:39:00,-4.7,-8.0,29.34,West,275,0.0,0.0,85,0.00,,,0.00,LWC V2.00 B2112,2013-02-24 09:39:00,
2013-02-24 00:44:00,-5.1,-8.7,29.34,West,275,0.0,0.0,84,0.00,,,0.00,LWC V2.00 B2112,2013-02-24 09:44:00,
2013-02-24 00:49:00,-5.5,-9.1,29.34,West,275,0.0,0.0,84,0.00,,,0.00,LWC V2.00 B2112,2013-02-24 09:49:00,
2013-02-24 00:54:00,-5.4,-8.5,29.34,West,275,0.0,0.0,86,0.00,,,0.00,LWC V2.00 B2112,2013-02-24 09:54:00,
2013-02-24 00:59:00,-5.3,-8.6,29.34,West,275,0.0,0.0,85,0.00,,,0.00,LWC V2.00 B2112,2013-02-24 09:59:00,
2013-02-24 01:04:00,-5.4,-8.7,29.34,West,275,0.0,0.0,85,0.00,,,0.00,LWC V2.00 B2112,2013-02-24 10:04:00,
2013-02-24 01:09:00,-5.8,-9.4,29.35,West,275,0.0,0.0,84,0.00,,,0.00,LWC V2.00 B2112,2013-02-24 10:09:00,
2013-02-24 01:14:00,-5.9,-9.2,29.35,WNW,284,0.0,0.0,85,0.00,,,0.00,LWC V2.00 B2112,2013-02-24 10:14:00,
2013-02-24 01:19:00,-5.8,-9.1,29.35,WNW,284,0.0,0.0,85,0.00,,,0.00,LWC V2.00 B2112,2013-02-24 10:19:00,
2013-02-24 01:24:00,-6.0,-9.3,29.35,WNW,284,0.0,0.0,85,0.00,,,0.00,LWC V2.00 B2112,2013-02-24 10:24:00,
2013-02-24 01:29:00,-6.1,-9.4,29.35,WNW,284,0.0,0.0,85,0.00,,,0.00,LWC V2.00 B2112,2013-02-24 10:29:00,
2013-02-24 01:34:00,-5.9,-9.2,29.35,WNW,284,0.0,0.0,85,0.00,,,0.00,LWC V2.00 B2112,2013-02-24 10:34:00,
2013-02-24 01:39:00,-5.9,-9.2,29.36,WNW,284,0.0,0.0,85,0.00,,,0.00,LWC V2.00 B2112,2013-02-24 10:39:00,
2013-02-24 01:44:00,-6.0,-9.6,29.36,WNW,284,0.0,0.0,84,0.00,,,0.00,LWC V2.00 B2112,2013-02-24 10:44:00,
2013-02-24 01:49:00,-5.9,-9.2,29.36,WNW,284,0.0,0.0,85,0.00,,,0.00,LWC V2.00 B2112,2013-02-24 10:49:00,
2013-02-24 01:54:00,-5.9,-9.2,29.36,WNW,284,0.0,0.0,85,0.00,,,0.00,LWC V2.00 B2112,2013-02-24 10:54:00,
2013-02-24 01:59:00,-6.2,-9.7,29.36,WNW,284,0.0,0.0,84,0.00,,,0.00,LWC V2.00 B2112,2013-02-24 10:59:00,
2013-02-24 02:04:00,-6.1,-9.4,29.37,WNW,286,0.0,0.0,85,0.00,,,0.00,LWC V2.00 B2112,2013-02-24 11:04:00,
2013-02-24 02:09:00,-5.8,-8.9,29.37,WNW,286,0.0,0.0,86,0.00,,,0.00,LWC V2.00 B2112,2013-02-24 11:09:00,
2013-02-24 02:14:00,-5.7,-9.0,29.37,WNW,286,0.0,0.0,85,0.00,,,0.00,LWC V2.00 B2112,2013-02-24 11:14:00,
2013-02-24 02:19:00,-5.9,-9.2,29.37,WNW,286,0.0,0.0,85,0.00,,,0.00,LWC V2.00 B2112,2013-02-24 11:19:00,
2013-02-24 02:24:00,-6.4,-9.9,29.37,WNW,286,0.0,0.0,84,0.00,,,0.00,LWC V2.00 B2112,2013-02-24 11:24:00,
2013-02-24 02:29:00,-6.4,-9.7,29.37,WNW,286,0.0,0.0,85,0.00,,,0.00,LWC V2.00 B2112,2013-02-24 11:29:00,
2013-02-24 02:34:00,-6.8,-10.3,29.37,WNW,286,0.0,0.0,84,0.00,,,0.00,LWC V2.00 B2112,2013-02-24 11:34:00,
2013-02-24 02:39:00,-6.9,-10.2,29.37,WNW,286,0.0,0.0,85,0.00,,,0.00,LWC V2.00 B2112,2013-02-24 11:39:00,
2013-02-24 02:44:00,-6.8,-9.9,29.37,WNW,286,0.0,0.0,86,0.00,,,0.00,LWC V2.00 B2112,2013-02-24 11:44:00,
2013-02-24 02:49:00,-6.3,-9.4,29.37,WNW,286,0.0,0.0,86,0.00,,,0.00,LWC V2.00 B2112,2013-02-24 11:49:00,
2013-02-24 02:54:00,-6.0,-9.1,29.37,WNW,286,0.0,0.0,86,0.00,,,0.00,LWC V2.00 B2112,2013-02-24 11:54:00,
2013-02-24 02:59:00,-6.5,-10.0,29.38,WNW,286,0.0,0.0,84,0.00,,,0.00,LWC V2.00 B2112,2013-02-24 11:59:00,
2013-02-24 03:04:00,-6.6,-9.9,29.38,WNW,286,0.0,0.0,85,0.00,,,0.00,LWC V2.00 B2112,2013-02-24 12:04:00,
2013-02-24 03:09:00,-6.5,-9.8,29.37,WNW,286,0.0,0.0,85,0.00,,,0.00,LWC V2.00 B2112,2013-02-24 12:09:00,
2013-02-24 03:14:00,-6.6,-9.9,29.37,WNW,286,0.0,0.0,85,0.00,,,0.00,LWC V2.00 B2112,2013-02-24 12:14:00,
2013-02-24 03:19:00,-6.6,-9.9,29.37,WNW,286,0.0,0.0,85,0.00,,,0.00,LWC V2.00 B2112,2013-02-24 12:19:00,
2013-02-24 03:24:00,-6.6,-9.9,29.38,WNW,286,0.0,0.0,85,0.00,,,0.00,LWC V2.00 B2112,2013-02-24 12:24:00,
2013-02-24 03:29:00,-6.1,-8.9,29.38,WSW,245,0.0,0.0,87,0.00,,,0.00,LWC V2.00 B2112,2013-02-24 12:29:00,
2013-02-24 03:34:00,-5.9,-9.0,29.38,SW,218,0.0,0.0,86,0.00,,,0.00,LWC V2.00 B2112,2013-02-24 12:34:00,
2013-02-24 03:39:00,-6.1,-9.4,29.38,WSW,250,0.0,0.0,85,0.00,,,0.00,LWC V2.00 B2112,2013-02-24 12:39:00,
2013-02-24 03:49:00,-6.0,-9.3,29.38,WNW,291,0.0,0.0,85,0.00,,,0.00,LWC V2.00 B2112,2013-02-24 12:49:00,
2013-02-24 03:54:00,-5.7,-8.8,29.38,NW,307,0.0,0.0,86,0.00,,,0.00,LWC V2.00 B2112,2013-02-24 12:54:00,
2013-02-24 03:59:00,-5.6,-8.9,29.39,NW,307,0.0,0.0,85,0.00,,,0.00,LWC V2.00 B2112,2013-02-24 12:59:00,
2013-02-24 04:04:00,-5.4,-8.5,29.38,NW,307,0.0,0.0,86,0.00,,,0.00,LWC V2.00 B2112,2013-02-24 13:04:00,
2013-02-24 04:09:00,-5.4,-8.7,29.39,NW,307,0.0,0.0,85,0.00,,,0.00,LWC V2.00 B2112,2013-02-24 13:09:00,
2013-02-24 04:14:00,-5.4,-8.7,29.39,NW,307,0.0,0.0,85,0.00,,,0.00,LWC V2.00 B2112,2013-02-24 13:14:00,
2013-02-24 04:19:00,-5.0,-8.1,29.39,NW,307,0.0,0.0,86,0.00,,,0.00,LWC V2.00 B2112,2013-02-24 13:19:00,
2013-02-24 04:24:00,-4.8,-7.9,29.39,NW,307,0.0,0.0,86,0.00,,,0.00,LWC V2.00 B2112,2013-02-24 13:24:00,
2013-02-24 04:29:00,-5.1,-8.7,29.39,NW,305,0.0,0.0,84,0.00,,,0.00,LWC V2.00 B2112,2013-02-24 13:29:00,
2013-02-24 04:34:00,-5.1,-8.4,29.39,NW,307,0.0,0.0,85,0.00,,,0.00,LWC V2.00 B2112,2013-02-24 13:34:00,
2013-02-24 04:39:00,-5.0,-8.3,29.39,NW,307,0.0,0.0,85,0.00,,,0.00,LWC V2.00 B2112,2013-02-24 13:39:00,
2013-02-24 04:44:00,-5.2,-8.5,29.40,NW,307,0.0,0.0,85,0.00,,,0.00,LWC V2.00 B2112,2013-02-24 13:44:00,
2013-02-24 04:49:00,-5.1,-8.4,29.40,NW,307,0.0,0.0,85,0.00,,,0.00,LWC V2.00 B2112,2013-02-24 13:49:00,
2013-02-24 04:54:00,-5.2,-8.8,29.40,NW,307,0.0,0.0,84,0.00,,,0.00,LWC V2.00 B2112,2013-02-24 13:54:00,
2013-02-24 04:59:00,-5.4,-8.7,29.40,NW,307,0.0,0.0,85,0.00,,,0.00,LWC V2.00 B2112,2013-02-24 13:59:00,
2013-02-24 05:04:00,-5.6,-9.2,29.40,NW,307,0.0,0.0,84,0.00,,,0.00,LWC V2.00 B2112,2013-02-24 14:04:00,
2013-02-24 05:09:00,-5.8,-9.4,29.40,NW,307,0.0,0.0,84,0.00,,,0.00,LWC V2.00 B2112,2013-02-24 14:09:00,
2013-02-24 05:14:00,-5.9,-9.5,29.40,NW,306,0.0,0.0,84,0.00,,,0.00,LWC V2.00 B2112,2013-02-24 14:14:00,
2013-02-24 05:19:00,-6.5,-10.3,29.40,NW,307,0.0,0.0,83,0.00,,,0.00,LWC V2.00 B2112,2013-02-24 14:19:00,
2013-02-24 05:24:00,-6.8,-10.3,29.40,NW,307,0.0,0.0,84,0.00,,,0.00,LWC V2.00 B2112,2013-02-24 14:24:00,
2013-02-24 05:29:00,-6.8,-10.3,29.41,NW,307,0.0,0.0,84,0.00,,,0.00,LWC V2.00 B2112,2013-02-24 14:29:00,
2013-02-24 05:34:00,-6.8,-10.3,29.41,NW,307,0.0,0.0,84,0.00,,,0.00,LWC V2.00 B2112,2013-02-24 14:34:00,
2013-02-24 05:39:00,-6.8,-10.1,29.41,NW,307,0.0,0.0,85,0.00,,,0.00,LWC V2.00 B2112,2013-02-24 14:39:00,
2013-02-24 05:44:00,-6.9,-10.2,29.41,NW,307,0.0,0.0,85,0.00,,,0.00,LWC V2.00 B2112,2013-02-24 14:44:00,
2013-02-24 05:49:00,-6.9,-10.4,29.42,NW,305,0.0,0.0,84,0.00,,,0.00,LWC V2.00 B2112,2013-02-24 14:49:00,
2013-02-24 05:54:00,-6.9,-10.2,29.42,NW,305,0.0,0.0,85,0.00,,,0.00,LWC V2.00 B2112,2013-02-24 14:54:00,
2013-02-24 05:59:00,-6.6,-9.9,29.42,NW,306,0.0,0.0,85,0.00,,,0.00,LWC V2.00 B2112,2013-02-24 14:59:00,
2013-02-24 06:04:00,-6.6,-10.1,29.42,NW,307,0.0,0.0,84,0.00,,,0.00,LWC V2.00 B2112,2013-02-24 15:04:00,
2013-02-24 06:09:00,-6.7,-10.0,29.42,NW,307,0.0,0.0,85,0.00,,,0.00,LWC V2.00 B2112,2013-02-24 15:09:00,
2013-02-24 06:14:00,-6.8,-10.3,29.42,NW,307,0.0,0.0,84,0.00,,,0.00,LWC V2.00 B2112,2013-02-24 15:14:00,
2013-02-24 06:19:00,-6.7,-10.0,29.43,NW,307,0.0,0.0,85,0.00,,,0.00,LWC V2.00 B2112,2013-02-24 15:19:00,
2013-02-24 06:24:00,-7.0,-10.8,29.43,NW,306,0.0,0.0,83,0.00,,,0.00,LWC V2.00 B2112,2013-02-24 15:24:00,
2013-02-24 06:29:00,-6.9,-10.2,29.43,NW,305,0.0,0.0,85,0.00,,,0.00,LWC V2.00 B2112,2013-02-24 15:29:00,
2013-02-24 06:34:00,-6.9,-10.4,29.43,NW,307,0.0,0.0,84,0.00,,,0.00,LWC V2.00 B2112,2013-02-24 15:34:00,
2013-02-24 06:39:00,-7.1,-10.4,29.43,NW,305,0.0,0.0,85,0.00,,,0.00,LWC V2.00 B2112,2013-02-24 15:39:00,
2013-02-24 06:44:00,-7.1,-10.4,29.44,NW,305,0.0,0.0,85,0.00,,,0.00,LWC V2.00 B2112,2013-02-24 15:44:00,
2013-02-24 06:49:00,-7.2,-10.7,29.44,NW,306,0.0,0.0,84,0.00,,,0.00,LWC V2.00 B2112,2013-02-24 15:49:00,
2013-02-24 06:54:00,-7.2,-10.5,29.44,NW,306,0.0,0.0,85,0.00,,,0.00,LWC V2.00 B2112,2013-02-24 15:54:00,
2013-02-24 06:59:00,-7.5,-11.0,29.44,NW,306,0.0,0.0,84,0.00,,,0.00,LWC V2.00 B2112,2013-02-24 15:59:00,
2013-02-24 07:04:00,-7.5,-11.0,29.44,NW,305,0.0,0.0,84,0.00,,,0.00,LWC V2.00 B2112,2013-02-24 16:04:00,
2013-02-24 07:09:00,-7.5,-11.0,29.44,NW,307,0.0,0.0,84,0.00,,,0.00,LWC V2.00 B2112,2013-02-24 16:09:00,
2013-02-24 07:14:00,-7.6,-11.1,29.45,NW,306,0.0,0.0,84,0.00,,,0.00,LWC V2.00 B2112,2013-02-24 16:14:00,
2013-02-24 07:19:00,-7.7,-11.2,29.45,NW,306,0.0,0.0,84,0.00,,,0.00,LWC V2.00 B2112,2013-02-24 16:19:00,
2013-02-24 07:24:00,-7.9,-11.4,29.45,NW,307,0.0,0.0,84,0.00,,,0.00,LWC V2.00 B2112,2013-02-24 16:24:00,
2013-02-24 07:29:00,-7.9,-11.4,29.45,NW,307,0.0,0.0,84,0.00,,,0.00,LWC V2.00 B2112,2013-02-24 16:29:00,
2013-02-24 07:34:00,-8.1,-11.6,29.46,NW,307,0.0,0.0,84,0.00,,,0.00,LWC V2.00 B2112,2013-02-24 16:34:00,
2013-02-24 07:39:00,-8.4,-12.1,29.46,NW,307,0.0,0.0,83,0.00,,,0.00,LWC V2.00 B2112,2013-02-24 16:39:00,
2013-02-24 07:44:00,-8.5,-12.0,29.46,NW,305,0.0,0.0,84,0.00,,,0.00,LWC V2.00 B2112,2013-02-24 16:44:00,
2013-02-24 07:49:00,-8.6,-12.1,29.46,NW,306,0.0,0.0,84,0.00,,,0.00,LWC V2.00 B2112,2013-02-24 16:49:00,
2013-02-24 07:54:00,-8.7,-12.2,29.46,NW,305,0.0,0.0,84,0.00,,,0.00,LWC V2.00 B2112,2013-02-24 16:54:00,
2013-02-24 07:59:00,-8.8,-12.3,29.47,NW,305,0.0,0.0,84,0.00,,,0.00,LWC V2.00 B2112,2013-02-24 16:59:00,
2013-02-24 08:04:00,-8.8,-12.3,29.47,NW,307,0.0,0.0,84,0.00,,,0.00,LWC V2.00 B2112,2013-02-24 17:04:00,
2013-02-24 08:09:00,-8.9,-12.4,29.47,NW,306,0.0,0.0,84,0.00,,,0.00,LWC V2.00 B2112,2013-02-24 17:09:00,
2013-02-24 08:14:00,-9.3,-13.0,29.47,NW,305,0.0,0.0,83,0.00,,,0.00,LWC V2.00 B2112,2013-02-24 17:14:00,
2013-02-24 08:19:00,-9.3,-12.8,29.47,NW,305,0.0,0.0,84,0.00,,,0.00,LWC V2.00 B2112,2013-02-24 17:19:00,
2013-02-24 08:24:00,-9.3,-12.8,29.47,NW,306,0.0,0.0,84,0.00,,,0.00,LWC V2.00 B2112,2013-02-24 17:24:00,
2013-02-24 08:29:00,-9.5,-13.2,29.47,NW,305,0.0,0.0,83,0.00,,,0.00,LWC V2.00 B2112,2013-02-24 17:29:00,
2013-02-24 08:34:00,-9.6,-13.1,29.47,NW,305,0.0,0.0,84,0.00,,,0.00,LWC V2.00 B2112,2013-02-24 17:34:00,
2013-02-24 08:39:00,-9.7,-13.4,29.48,NW,306,0.0,0.0,83,0.00,,,0.00,LWC V2.00 B2112,2013-02-24 17:39:00,
2013-02-24 08:44:00,-9.9,-13.6,29.48,NW,305,0.0,0.0,83,0.00,,,0.00,LWC V2.00 B2112,2013-02-24 17:44:00,
2013-02-24 08:49:00,-10.1,-13.6,29.48,NW,306,0.0,0.0,84,0.00,,,0.00,LWC V2.00 B2112,2013-02-24 17:49:00,
2013-02-24 08:54:00,-10.0,-13.5,29.48,NW,305,0.0,0.0,84,0.00,,,0.00,LWC V2.00 B2112,2013-02-24 17:54:00,
2013-02-24 08:59:00,-10.0,-13.5,29.48,NW,306,0.0,0.0,84,0.00,,,0.00,LWC V2.00 B2112,2013-02-24 17:59:00,
2013-02-24 09:04:00,-9.8,-13.3,29.48,NW,306,0.0,0.0,84,0.00,,,0.00,LWC V2.00 B2112,2013-02-24 18:04:00,
2013-02-24 09:09:00,-9.3,-12.8,29.49,NW,307,0.0,0.0,84,0.00,,,0.00,LWC V2.00 B2112,2013-02-24 18:09:00,
2013-02-24 09:14:00,-8.6,-11.9,29.49,NW,305,0.0,0.0,85,0.00,,,0.00,LWC V2.00 B2112,2013-02-24 18:14:00,
2013-02-24 09:19:00,-8.4,-11.9,29.49,NW,306,0.0,0.0,84,0.00,,,0.00,LWC V2.00 B2112,2013-02-24 18:19:00,
2013-02-24 09:24:00,-8.0,-11.3,29.49,NW,307,0.0,0.0,85,0.00,,,0.00,LWC V2.00 B2112,2013-02-24 18:24:00,
2013-02-24 09:29:00,-7.5,-10.8,29.49,NW,307,0.0,0.0,85,0.00,,,0.00,LWC V2.00 B2112,2013-02-24 18:29:00,
2013-02-24 09:34:00,-7.1,-10.4,29.50,NW,307,0.0,0.0,85,0.00,,,0.00,LWC V2.00 B2112,2013-02-24 18:34:00,
2013-02-24 09:39:00,-6.8,-10.3,29.50,NW,307,0.0,0.0,84,0.00,,,0.00,LWC V2.00 B2112,2013-02-24 18:39:00,
2013-02-24 09:44:00,-6.6,-10.1,29.50,NW,307,0.0,0.0,84,0.00,,,0.00,LWC V2.00 B2112,2013-02-24 18:44:00,
2013-02-24 09:49:00,-6.1,-9.7,29.50,NW,307,0.0,0.0,84,0.00,,,0.00,LWC V2.00 B2112,2013-02-24 18:49:00,
2013-02-24 09:54:00,-5.5,-9.1,29.50,NW,307,0.0,0.0,84,0.00,,,0.00,LWC V2.00 B2112,2013-02-24 18:54:00,
2013-02-24 09:59:00,-5.2,-9.3,29.50,NW,307,0.0,0.0,82,0.00,,,0.00,LWC V2.00 B2112,2013-02-24 18:59:00,
2013-02-24 10:04:00,-5.0,-9.1,29.50,NW,307,0.0,0.0,82,0.00,,,0.00,LWC V2.00 B2112,2013-02-24 19:04:00,
2013-02-24 10:09:00,-4.7,-8.8,29.51,NW,307,0.0,0.0,82,0.00,,,0.00,LWC V2.00 B2112,2013-02-24 19:09:00,
2013-02-24 10:14:00,-4.7,-9.3,29.51,NW,307,0.0,0.0,80,0.00,,,0.00,LWC V2.00 B2112,2013-02-24 19:14:00,
2013-02-24 10:19:00,-4.9,-9.5,29.51,NW,307,0.0,0.0,80,0.00,,,0.00,LWC V2.00 B2112,2013-02-24 19:19:00,
2013-02-24 10:24:00,-4.9,-9.5,29.52,NW,307,0.0,0.0,80,0.00,,,0.00,LWC V2.00 B2112,2013-02-24 19:24:00,
2013-02-24 10:29:00,-5.1,-9.7,29.52,NW,307,0.0,0.0,80,0.00,,,0.00,LWC V2.00 B2112,2013-02-24 19:29:00,
2013-02-24 10:34:00,-5.1,-9.7,29.52,NW,307,0.0,0.0,80,0.00,,,0.00,LWC V2.00 B2112,2013-02-24 19:34:00,
2013-02-24 10:39:00,-5.0,-9.6,29.52,NW,307,0.0,0.0,80,0.00,,,0.00,LWC V2.00 B2112,2013-02-24 19:39:00,
2013-02-24 10:44:00,-5.1,-9.9,29.52,NW,307,0.0,0.0,79,0.00,,,0.00,LWC V2.00 B2112,2013-02-24 19:44:00,
2013-02-24 10:49:00,-4.9,-9.5,29.52,NW,307,0.0,0.0,80,0.00,,,0.00,LWC V2.00 B2112,2013-02-24 19:49:00,
2013-02-24 10:54:00,-4.7,-9.5,29.52,NW,307,0.0,0.0,79,0.00,,,0.00,LWC V2.00 B2112,2013-02-24 19:54:00,
2013-02-24 10:59:00,-4.4,-9.2,29.52,NW,307,0.0,0.0,79,0.00,,,0.00,LWC V2.00 B2112,2013-02-24 19:59:00,
2013-02-24 11:04:00,-4.0,-8.8,29.52,NW,307,0.0,0.0,79,0.00,,,0.00,LWC V2.00 B2112,2013-02-24 20:04:00,
2013-02-24 11:09:00,-3.7,-8.5,29.53,NW,307,0.0,0.0,79,0.00,,,0.00,LWC V2.00 B2112,2013-02-24 20:09:00,
2013-02-24 11:14:00,-3.3,-8.2,29.53,NW,307,0.0,0.0,79,0.00,,,0.00,LWC V2.00 B2112,2013-02-24 20:14:00,
2013-02-24 11:19:00,-2.9,-8.0,29.53,NNW,344,0.0,0.0,78,0.00,,,0.00,LWC V2.00 B2112,2013-02-24 20:19:00,
2013-02-24 11:24:00,-2.4,-7.5,29.53,SW,215,0.0,0.0,78,0.00,,,0.00,LWC V2.00 B2112,2013-02-24 20:24:00,
2013-02-24 11:29:00,-1.8,-7.2,29.53,ESE,110,0.0,0.0,77,0.00,,,0.00,LWC V2.00 B2112,2013-02-24 20:29:00,
2013-02-24 11:34:00,-1.8,-7.8,29.54,ESE,105,0.0,0.0,75,0.00,,,0.00,LWC V2.00 B2112,2013-02-24 20:34:00,
2013-02-24 11:39:00,-2.0,-8.2,29.54,East,97,0.0,0.0,74,0.00,,,0.00,LWC V2.00 B2112,2013-02-24 20:39:00,
2013-02-24 11:44:00,-1.9,-8.1,29.54,SE,129,0.0,0.0,74,0.00,,,0.00,LWC V2.00 B2112,2013-02-24 20:44:00,
2013-02-24 11:49:00,-1.8,-8.0,29.54,SE,135,0.0,0.0,74,0.00,,,0.00,LWC V2.00 B2112,2013-02-24 20:49:00,
2013-02-24 11:54:00,-1.6,-7.8,29.54,SE,144,0.0,0.0,74,0.00,,,0.00,LWC V2.00 B2112,2013-02-24 20:54:00,
2013-02-24 11:59:00,-1.3,-7.8,29.55,ESE,109,0.0,0.0,73,0.00,,,0.00,LWC V2.00 B2112,2013-02-24 20:59:00,
2013-02-24 12:04:00,-1.0,-7.3,29.55,SE,129,0.0,0.0,74,0.00,,,0.00,LWC V2.00 B2112,2013-02-24 21:04:00,
2013-02-24 12:09:00,-0.7,-7.2,29.55,SW,221,0.0,0.0,73,0.00,,,0.00,LWC V2.00 B2112,2013-02-24 21:09:00,
2013-02-24 12:14:00,-0.3,-6.9,29.55,SW,232,0.0,0.0,73,0.00,,,0.00,LWC V2.00 B2112,2013-02-24 21:14:00,
2013-02-24 12:19:00,0.2,-6.4,29.55,SSE,159,0.0,0.0,73,0.00,,,0.00,LWC V2.00 B2112,2013-02-24 21:19:00,
2013-02-24 12:24:00,0.6,-6.0,29.55,ESE,103,0.0,0.0,73,0.00,,,0.00,LWC V2.00 B2112,2013-02-24 21:24:00,
2013-02-24 12:29:00,0.4,-6.2,29.55,ESE,105,0.0,0.0,73,0.00,,,0.00,LWC V2.00 B2112,2013-02-24 21:29:00,
2013-02-24 12:34:00,0.3,-6.3,29.55,ESE,119,0.0,0.0,73,0.00,,,0.00,LWC V2.00 B2112,2013-02-24 21:34:00,
2013-02-24 12:39:00,0.3,-6.3,29.55,ESE,118,0.0,0.0,73,0.00,,,0.00,LWC V2.00 B2112,2013-02-24 21:39:00,
2013-02-24 12:44:00,0.3,-6.0,29.55,SE,125,0.0,0.0,74,0.00,,,0.00,LWC V2.00 B2112,2013-02-24 21:44:00,
2013-02-24 12:49:00,0.3,-6.0,29.56,SE,129,0.0,0.0,74,0.00,,,0.00,LWC V2.00 B2112,2013-02-24 21:49:00,
2013-02-24 12:54:00,0.4,-5.9,29.56,SE,129,0.0,0.0,74,0.00,,,0.00,LWC V2.00 B2112,2013-02-24 21:54:00,
2013-02-24 12:59:00,0.6,-5.7,29.56,SE,129,0.0,0.0,74,0.00,,,0.00,LWC V2.00 B2112,2013-02-24 21:59:00,
2013-02-24 13:04:00,0.5,-5.8,29.56,SE,129,0.0,0.0,74,0.00,,,0.00,LWC V2.00 B2112,2013-02-24 22:04:00,
2013-02-24 13:09:00,0.6,-5.7,29.56,SE,130,0.0,0.0,74,0.00,,,0.00,LWC V2.00 B2112,2013-02-24 22:09:00,
2013-02-24 13:14:00,0.7,-5.6,29.56,ESE,107,0.0,0.0,74,0.00,,,0.00,LWC V2.00 B2112,2013-02-24 22:14:00,
2013-02-24 13:19:00,1.0,-5.0,29.56,ESE,109,0.0,0.0,75,0.00,,,0.00,LWC V2.00 B2112,2013-02-24 22:19:00,
2013-02-24 13:24:00,1.4,-4.7,29.55,ESE,109,0.0,0.0,75,0.00,,,0.00,LWC V2.00 B2112,2013-02-24 22:24:00,
2013-02-24 13:29:00,2.5,-3.9,29.56,ESE,109,0.0,0.0,74,0.00,,,0.00,LWC V2.00 B2112,2013-02-24 22:29:00,
2013-02-24 13:34:00,3.5,-3.5,29.55,SSE,156,0.0,0.0,72,0.00,,,0.00,LWC V2.00 B2112,2013-02-24 22:34:00,
2013-02-24 13:39:00,4.2,-3.1,29.55,SSE,153,0.0,0.0,71,0.00,,,0.00,LWC V2.00 B2112,2013-02-24 22:39:00,
2013-02-24 13:44:00,4.4,-3.2,29.55,ESE,121,0.0,0.0,70,0.00,,,0.00,LWC V2.00 B2112,2013-02-24 22:44:00,
2013-02-24 13:49:00,4.3,-3.0,29.55,ESE,110,0.0,0.0,71,0.00,,,0.00,LWC V2.00 B2112,2013-02-24 22:49:00,
2013-02-24 13:54:00,4.3,-2.7,29.55,ESE,110,0.0,0.0,72,0.00,,,0.00,LWC V2.00 B2112,2013-02-24 22:54:00,
2013-02-24 13:59:00,4.6,-2.4,29.55,ESE,113,0.0,0.0,72,0.00,,,0.00,LWC V2.00 B2112,2013-02-24 22:59:00,
2013-02-24 14:04:00,4.8,-2.2,29.55,ESE,109,0.0,0.0,72,0.00,,,0.00,LWC V2.00 B2112,2013-02-24 23:04:00,
2013-02-24 14:09:00,5.1,-1.9,29.56,SE,134,0.0,0.0,72,0.00,,,0.00,LWC V2.00 B2112,2013-02-24 23:09:00,
2013-02-24 14:14:00,5.3,-2.0,29.56,ESE,113,0.0,0.0,71,0.00,,,0.00,LWC V2.00 B2112,2013-02-24 23:14:00,
2013-02-24 14:19:00,5.2,-2.1,29.56,SE,127,0.0,0.0,71,0.00,,,0.00,LWC V2.00 B2112,2013-02-24 23:19:00,
2013-02-24 14:24:00,4.9,-2.4,29.56,SE,125,0.0,0.0,71,0.00,,,0.00,LWC V2.00 B2112,2013-02-24 23:24:00,
2013-02-24 14:29:00,4.7,-2.6,29.56,ESE,113,0.0,0.0,71,0.00,,,0.00,LWC V2.00 B2112,2013-02-24 23:29:00,
2013-02-24 14:34:00,4.5,-2.5,29.56,ESE,112,0.0,0.0,72,0.00,,,0.00,LWC V2.00 B2112,2013-02-24 23:34:00,
2013-02-24 14:39:00,4.7,-2.3,29.56,ESE,111,0.0,0.0,72,0.00,,,0.00,LWC V2.00 B2112,2013-02-24 23:39:00,
2013-02-24 14:44:00,5.1,-1.9,29.56,ESE,120,0.0,0.0,72,0.00,,,0.00,LWC V2.00 B2112,2013-02-24 23:44:00,
2013-02-24 14:49:00,5.5,-1.5,29.56,SSE,161,0.0,0.0,72,0.00,,,0.00,LWC V2.00 B2112,2013-02-24 23:49:00,
2013-02-24 14:54:00,6.0,-1.3,29.56,ESE,116,0.0,0.0,71,0.00,,,0.00,LWC V2.00 B2112,2013-02-24 23:54:00,
2013-02-24 14:59:00,6.7,-0.7,29.56,ESE,115,0.0,0.0,71,0.00,,,0.00,LWC V2.00 B2112,2013-02-24 23:59:00,
2013-02-24 15:04:00,7.6,-0.1,29.56,ESE,116,0.0,0.0,70,0.00,,,0.00,LWC V2.00 B2112,2013-02-25 00:04:00,
2013-02-24 15:09:00,7.9,0.2,29.56,ESE,116,0.0,0.0,70,0.00,,,0.00,LWC V2.00 B2112,2013-02-25 00:09:00,
2013-02-24 15:14:00,8.0,0.0,29.57,ESE,116,0.0,0.0,69,0.00,,,0.00,LWC V2.00 B2112,2013-02-25 00:14:00,
2013-02-24 15:19:00,7.4,-0.6,29.57,ESE,110,0.0,0.0,69,0.00,,,0.00,LWC V2.00 B2112,2013-02-25 00:19:00,
2013-02-24 15:24:00,6.9,-0.8,29.57,ESE,107,0.0,0.0,70,0.00,,,0.00,LWC V2.00 B2112,2013-02-25 00:24:00,
2013-02-24 15:29:00,6.6,-1.1,29.57,ESE,105,0.0,0.0,70,0.00,,,0.00,LWC V2.00 B2112,2013-02-25 00:29:00,
2013-02-24 15:34:00,6.3,-1.4,29.57,SE,129,0.0,0.0,70,0.00,,,0.00,LWC V2.00 B2112,2013-02-25 00:34:00,
2013-02-24 15:39:00,6.2,-1.2,29.57,SE,127,0.0,0.0,71,0.00,,,0.00,LWC V2.00 B2112,2013-02-25 00:39:00,
2013-02-24 15:44:00,6.2,-1.2,29.57,SE,127,0.0,0.0,71,0.00,,,0.00,LWC V2.00 B2112,2013-02-25 00:44:00,
2013-02-24 15:49:00,6.2,-1.5,29.58,SE,126,0.0,0.0,70,0.00,,,0.00,LWC V2.00 B2112,2013-02-25 00:49:00,
2013-02-24 15:54:00,5.9,-1.4,29.57,SE,126,0.0,0.0,71,0.00,,,0.00,LWC V2.00 B2112,2013-02-25 00:54:00,
2013-02-24 15:59:00,5.7,-1.6,29.58,SE,127,0.0,0.0,71,0.00,,,0.00,LWC V2.00 B2112,2013-02-25 00:59:00,
2013-02-24 16:04:00,5.1,-2.5,29.58,SE,127,0.0,0.0,70,0.00,,,0.00,LWC V2.00 B2112,2013-02-25 01:04:00,
2013-02-24 16:09:00,4.1,-3.2,29.58,SE,127,0.0,0.0,71,0.00,,,0.00,LWC V2.00 B2112,2013-02-25 01:09:00,
2013-02-24 16:14:00,3.1,-3.9,29.58,SE,127,0.0,0.0,72,0.00,,,0.00,LWC V2.00 B2112,2013-02-25 01:14:00,
2013-02-24 16:19:00,2.2,-4.2,29.58,SE,126,0.0,0.0,74,0.00,,,0.00,LWC V2.00 B2112,2013-02-25 01:19:00,
2013-02-24 16:24:00,1.3,-5.0,29.58,SE,126,0.0,0.0,74,0.00,,,0.00,LWC V2.00 B2112,2013-02-25 01:24:00,
2013-02-24 16:29:00,0.4,-5.6,29.58,SE,126,0.0,0.0,75,0.00,,,0.00,LWC V2.00 B2112,2013-02-25 01:29:00,
2013-02-24 16:34:00,0.3,-4.9,29.58,SE,127,0.0,0.0,78,0.00,,,0.00,LWC V2.00 B2112,2013-02-25 01:34:00,
2013-02-24 16:39:00,0.1,-5.4,29.58,SE,126,0.0,0.0,77,0.00,,,0.00,LWC V2.00 B2112,2013-02-25 01:39:00,
2013-02-24 16:44:00,-0.3,-5.8,29.58,SE,127,0.0,0.0,77,0.00,,,0.00,LWC V2.00 B2112,2013-02-25 01:44:00,
2013-02-24 16:49:00,-0.8,-6.2,29.58,SE,127,0.0,0.0,77,0.00,,,0.00,LWC V2.00 B2112,2013-02-25 01:49:00,
2013-02-24 16:54:00,-1.1,-6.0,29.59,SE,126,0.0,0.0,79,0.00,,,0.00,LWC V2.00 B2112,2013-02-25 01:54:00,
2013-02-24 16:59:00,-1.5,-6.7,29.59,SE,127,0.0,0.0,78,0.00,,,0.00,LWC V2.00 B2112,2013-02-25 01:59:00,
2013-02-24 17:04:00,-1.6,-6.2,29.59,SE,127,0.0,0.0,80,0.00,,,0.00,LWC V2.00 B2112,2013-02-25 02:04:00,
2013-02-24 17:09:00,-1.9,-6.8,29.59,SE,127,0.0,0.0,79,0.00,,,0.00,LWC V2.00 B2112,2013-02-25 02:09:00,
2013-02-24 17:14:00,-2.1,-7.0,29.59,SE,127,0.0,0.0,79,0.00,,,0.00,LWC V2.00 B2112,2013-02-25 02:14:00,
2013-02-24 17:19:00,-2.4,-7.0,29.60,SE,127,0.0,0.0,80,0.00,,,0.00,LWC V2.00 B2112,2013-02-25 02:19:00,
2013-02-24 17:24:00,-2.6,-7.2,29.60,SE,127,0.0,0.0,80,0.00,,,0.00,LWC V2.00 B2112,2013-02-25 02:24:00,
2013-02-24 17:29:00,-2.6,-7.0,29.60,SE,126,0.0,0.0,81,0.00,,,0.00,LWC V2.00 B2112,2013-02-25 02:29:00,
2013-02-24 17:34:00,-2.6,-7.0,29.60,SE,126,0.0,0.0,81,0.00,,,0.00,LWC V2.00 B2112,2013-02-25 02:34:00,
2013-02-24 17:39:00,-2.9,-7.3,29.60,SE,127,0.0,0.0,81,0.00,,,0.00,LWC V2.00 B2112,2013-02-25 02:39:00,
2013-02-24 17:44:00,-3.0,-7.4,29.60,SE,127,0.0,0.0,81,0.00,,,0.00,LWC V2.00 B2112,2013-02-25 02:44:00,
2013-02-24 17:49:00,-3.4,-8.3,29.60,SE,127,0.0,0.0,79,0.00,,,0.00,LWC V2.00 B2112,2013-02-25 02:49:00,
2013-02-24 17:54:00,-4.1,-8.7,29.61,SE,127,0.0,0.0,80,0.00,,,0.00,LWC V2.00 B2112,2013-02-25 02:54:00,
2013-02-24 17:59:00,-4.1,-8.2,29.61,SE,127,0.0,0.0,82,0.00,,,0.00,LWC V2.00 B2112,2013-02-25 02:59:00,
2013-02-24 18:04:00,-3.8,-8.1,29.61,SE,126,0.0,0.0,81,0.00,,,0.00,LWC V2.00 B2112,2013-02-25 03:04:00,
2013-02-24 18:09:00,-4.1,-8.7,29.61,SE,127,0.0,0.0,80,0.00,,,0.00,LWC V2.00 B2112,2013-02-25 03:09:00,
2013-02-24 18:14:00,-4.2,-8.5,29.61,SE,127,0.0,0.0,81,0.00,,,0.00,LWC V2.00 B2112,2013-02-25 03:14:00,
2013-02-24 18:19:00,-4.3,-8.9,29.61,SE,127,0.0,0.0,80,0.00,,,0.00,LWC V2.00 B2112,2013-02-25 03:19:00,
2013-02-24 18:24:00,-4.4,-9.0,29.61,SE,126,0.0,0.0,80,0.00,,,0.00,LWC V2.00 B2112,2013-02-25 03:24:00,
2013-02-24 18:29:00,-4.8,-9.1,29.61,SE,126,0.0,0.0,81,0.00,,,0.00,LWC V2.00 B2112,2013-02-25 03:29:00,
2013-02-24 18:34:00,-5.0,-9.3,29.62,SE,127,0.0,0.0,81,0.00,,,0.00,LWC V2.00 B2112,2013-02-25 03:34:00,
2013-02-24 18:39:00,-5.2,-9.5,29.62,SE,127,0.0,0.0,81,0.00,,,0.00,LWC V2.00 B2112,2013-02-25 03:39:00,
2013-02-24 18:44:00,-5.6,-9.9,29.62,SE,127,0.0,0.0,81,0.00,,,0.00,LWC V2.00 B2112,2013-02-25 03:44:00,
2013-02-24 18:49:00,-5.9,-10.2,29.62,SE,127,0.0,0.0,81,0.00,,,0.00,LWC V2.00 B2112,2013-02-25 03:49:00,
2013-02-24 18:54:00,-5.9,-9.9,29.62,SE,127,0.0,0.0,82,0.00,,,0.00,LWC V2.00 B2112,2013-02-25 03:54:00,
2013-02-24 18:59:00,-5.5,-9.5,29.62,SE,127,0.0,0.0,82,0.00,,,0.00,LWC V2.00 B2112,2013-02-25 03:59:00,
2013-02-24 19:04:00,-5.4,-9.5,29.62,SE,127,0.0,0.0,82,0.00,,,0.00,LWC V2.00 B2112,2013-02-25 04:04:00,
2013-02-24 19:09:00,-5.7,-10.2,29.63,SE,126,0.0,0.0,80,0.00,,,0.00,LWC V2.00 B2112,2013-02-25 04:09:00,
2013-02-24 19:14:00,-5.7,-9.7,29.63,SE,126,0.0,0.0,82,0.00,,,0.00,LWC V2.00 B2112,2013-02-25 04:14:00,
2013-02-24 19:19:00,-5.8,-9.8,29.63,SE,127,0.0,0.0,82,0.00,,,0.00,LWC V2.00 B2112,2013-02-25 04:19:00,
2013-02-24 19:24:00,-6.1,-10.4,29.63,SE,126,0.0,0.0,81,0.00,,,0.00,LWC V2.00 B2112,2013-02-25 04:24:00,
2013-02-24 19:29:00,-6.2,-10.5,29.63,SE,127,0.0,0.0,81,0.00,,,0.00,LWC V2.00 B2112,2013-02-25 04:29:00,
2013-02-24 19:34:00,-6.2,-10.5,29.63,SE,127,0.0,0.0,81,0.00,,,0.00,LWC V2.00 B2112,2013-02-25 04:34:00,
2013-02-24 19:39:00,-6.2,-10.5,29.64,SE,126,0.0,0.0,81,0.00,,,0.00,LWC V2.00 B2112,2013-02-25 04:39:00,
2013-02-24 19:44:00,-5.9,-9.7,29.64,SE,126,0.0,0.0,83,0.00,,,0.00,LWC V2.00 B2112,2013-02-25 04:44:00,
2013-02-24 19:49:00,-5.5,-9.3,29.64,SE,126,0.0,0.0,83,0.00,,,0.00,LWC V2.00 B2112,2013-02-25 04:49:00,
2013-02-24 19:54:00,-5.4,-9.5,29.64,SE,126,0.0,0.0,82,0.00,,,0.00,LWC V2.00 B2112,2013-02-25 04:54:00,
2013-02-24 19:59:00,-5.5,-9.5,29.64,SE,127,0.0,0.0,82,0.00,,,0.00,LWC V2.00 B2112,2013-02-25 04:59:00,
2013-02-24 20:04:00,-5.7,-9.7,29.64,SE,126,0.0,0.0,82,0.00,,,0.00,LWC V2.00 B2112,2013-02-25 05:04:00,
2013-02-24 20:08:00,-5.9,-10.2,29.64,SE,126,0.0,0.0,81,0.00,,,0.00,LWC V2.00 B2112,2013-02-25 05:08:00,
2013-02-24 20:13:00,-5.9,-9.9,29.65,SE,127,0.0,0.0,82,0.00,,,0.00,LWC V2.00 B2112,2013-02-25 05:13:00,
2013-02-24 20:18:00,-5.6,-9.6,29.65,SE,127,0.0,0.0,82,0.00,,,0.00,LWC V2.00 B2112,2013-02-25 05:18:00,
2013-02-24 20:23:00,-5.6,-9.6,29.65,SE,126,0.0,0.0,82,0.00,,,0.00,LWC V2.00 B2112,2013-02-25 05:23:00,
2013-02-24 20:28:00,-5.5,-9.5,29.65,SE,126,0.0,0.0,82,0.00,,,0.00,LWC V2.00 B2112,2013-02-25 05:28:00,
2013-02-24 20:33:00,-5.5,-9.5,29.65,SE,126,0.0,0.0,82,0.00,,,0.00,LWC V2.00 B2112,2013-02-25 05:33:00,
2013-02-24 20:38:00,-5.5,-9.5,29.65,SE,127,0.0,0.0,82,0.00,,,0.00,LWC V2.00 B2112,2013-02-25 05:38:00,
2013-02-24 20:43:00,-5.3,-9.4,29.65,SE,127,0.0,0.0,82,0.00,,,0.00,LWC V2.00 B2112,2013-02-25 05:43:00,
2013-02-24 20:48:00,-5.1,-9.2,29.65,SE,127,0.0,0.0,82,0.00,,,0.00,LWC V2.00 B2112,2013-02-25 05:48:00,
2013-02-24 20:53:00,-5.1,-9.2,29.65,SE,126,0.0,0.0,82,0.00,,,0.00,LWC V2.00 B2112,2013-02-25 05:53:00,
2013-02-24 20:58:00,-5.1,-9.2,29.65,SE,126,0.0,0.0,82,0.00,,,0.00,LWC V2.00 B2112,2013-02-25 05:58:00,
2013-02-24 21:03:00,-5.2,-9.3,29.65,SE,126,0.0,0.0,82,0.00,,,0.00,LWC V2.00 B2112,2013-02-25 06:03:00,
2013-02-24 21:08:00,-5.4,-9.5,29.65,SE,127,0.0,0.0,82,0.00,,,0.00,LWC V2.00 B2112,2013-02-25 06:08:00,
2013-02-24 21:13:00,-5.7,-9.7,29.65,SE,126,0.0,0.0,82,0.00,,,0.00,LWC V2.00 B2112,2013-02-25 06:13:00,
2013-02-24 21:18:00,-6.1,-10.1,29.65,SE,126,0.0,0.0,82,0.00,,,0.00,LWC V2.00 B2112,2013-02-25 06:18:00,
2013-02-24 21:23:00,-6.1,-9.9,29.65,SE,127,0.0,0.0,83,0.00,,,0.00,LWC V2.00 B2112,2013-02-25 06:23:00,
2013-02-24 21:28:00,-6.2,-10.0,29.66,SE,127,0.0,0.0,83,0.00,,,0.00,LWC V2.00 B2112,2013-02-25 06:28:00,
2013-02-24 21:33:00,-6.2,-10.0,29.65,SE,127,0.0,0.0,83,0.00,,,0.00,LWC V2.00 B2112,2013-02-25 06:33:00,
2013-02-24 21:38:00,-6.1,-9.7,29.66,SE,127,0.0,0.0,84,0.00,,,0.00,LWC V2.00 B2112,2013-02-25 06:38:00,
2013-02-24 21:43:00,-6.3,-10.1,29.66,SE,126,0.0,0.0,83,0.00,,,0.00,LWC V2.00 B2112,2013-02-25 06:43:00,
2013-02-24 21:48:00,-6.7,-10.7,29.66,SE,126,0.0,0.0,82,0.00,,,0.00,LWC V2.00 B2112,2013-02-25 06:48:00,
2013-02-24 21:53:00,-6.8,-10.6,29.66,SE,127,0.0,0.0,83,0.00,,,0.00,LWC V2.00 B2112,2013-02-25 06:53:00,
2013-02-24 21:58:00,-6.8,-10.6,29.66,SE,127,0.0,0.0,83,0.00,,,0.00,LWC V2.00 B2112,2013-02-25 06:58:00,
2013-02-24 22:03:00,-6.8,-10.8,29.66,SE,126,0.0,0.0,82,0.00,,,0.00,LWC V2.00 B2112,2013-02-25 07:03:00,
2013-02-24 22:08:00,-6.8,-10.6,29.66,SE,126,0.0,0.0,83,0.00,,,0.00,LWC V2.00 B2112,2013-02-25 07:08:00,
2013-02-24 22:13:00,-6.9,-10.7,29.66,SE,127,0.0,0.0,83,0.00,,,0.00,LWC V2.00 B2112,2013-02-25 07:13:00,
2013-02-24 22:18:00,-7.4,-11.7,29.66,SE,126,0.0,0.0,81,0.00,,,0.00,LWC V2.00 B2112,2013-02-25 07:18:00,
2013-02-24 22:23:00,-7.3,-11.1,29.66,SE,127,0.0,0.0,83,0.00,,,0.00,LWC V2.00 B2112,2013-02-25 07:23:00,
2013-02-24 22:28:00,-7.2,-11.0,29.66,SE,126,0.0,0.0,83,0.00,,,0.00,LWC V2.00 B2112,2013-02-25 07:28:00,
2013-02-24 22:33:00,-7.0,-10.8,29.66,SE,126,0.0,0.0,83,0.00,,,0.00,LWC V2.00 B2112,2013-02-25 07:33:00,
2013-02-24 22:38:00,-6.9,-10.7,29.66,SE,126,0.0,0.0,83,0.00,,,0.00,LWC V2.00 B2112,2013-02-25 07:38:00,
2013-02-24 22:44:00,-6.6,-10.4,29.67,SE,126,0.0,0.0,83,0.00,,,0.00,LWC V2.00 B2112,2013-02-25 07:44:00,
2013-02-24 22:48:00,-6.5,-10.3,29.67,SE,126,0.0,0.0,83,0.00,,,0.00,LWC V2.00 B2112,2013-02-25 07:48:00,
2013-02-24 22:53:00,-6.5,-10.3,29.67,SE,126,0.0,0.0,83,0.00,,,0.00,LWC V2.00 B2112,2013-02-25 07:53:00,
2013-02-24 22:58:00,-6.5,-10.3,29.67,SE,126,0.0,0.0,83,0.00,,,0.00,LWC V2.00 B2112,2013-02-25 07:58:00,
2013-02-24 23:03:00,-6.7,-10.5,29.67,SE,126,0.0,0.0,83,0.00,,,0.00,LWC V2.00 B2112,2013-02-25 08:03:00,
2013-02-24 23:08:00,-6.9,-10.7,29.67,SE,127,0.0,0.0,83,0.00,,,0.00,LWC V2.00 B2112,2013-02-25 08:08:00,
2013-02-24 23:13:00,-6.7,-10.2,29.67,SE,127,0.0,0.0,84,0.00,,,0.00,LWC V2.00 B2112,2013-02-25 08:13:00,
2013-02-24 23:18:00,-6.4,-9.9,29.67,SE,127,0.0,0.0,84,0.00,,,0.00,LWC V2.00 B2112,2013-02-25 08:18:00,
2013-02-24 23:23:00,-6.0,-9.3,29.67,SE,126,0.0,0.0,85,0.00,,,0.00,LWC V2.00 B2112,2013-02-25 08:23:00,
2013-02-24 23:28:00,-5.9,-9.5,29.67,SE,126,0.0,0.0,84,0.00,,,0.00,LWC V2.00 B2112,2013-02-25 08:28:00,
2013-02-24 23:33:00,-6.1,-9.7,29.67,SE,126,0.0,0.0,84,0.00,,,0.00,LWC V2.00 B2112,2013-02-25 08:33:00,
2013-02-24 23:38:00,-6.2,-9.7,29.67,SE,126,0.0,0.0,84,0.00,,,0.00,LWC V2.00 B2112,2013-02-25 08:38:00,
2013-02-24 23:43:00,-6.3,-9.8,29.68,SE,126,0.0,0.0,84,0.00,,,0.00,LWC V2.00 B2112,2013-02-25 08:43:00,
2013-02-24 23:48:00,-6.1,-9.4,29.68,SE,127,0.0,0.0,85,0.00,,,0.00,LWC V2.00 B2112,2013-02-25 08:48:00,
2013-02-24 23:53:00,-5.9,-9.5,29.68,SE,126,0.0,0.0,84,0.00,,,0.00,LWC V2.00 B2112,2013-02-25 08:53:00,
2013-02-24 23:58:00,-5.8,-9.4,29.68,SE,126,0.0,0.0,84,0.00,,,0.00,LWC V2.00 B2112,2013-02-25 08:58:00,